Location: Godiavel Galaoual
(15.2485°N, 12.6604°W)
Time: 12:48:43
(UTC+00:00)

LightSail 2 - Pass Details

Date: 08 June 2020
Orbit: 691 x 722 km, 24.0° (Epoch: 06 July)

Event Time Altitude Azimuth Distance (km) Brightness Sun altitude
Rises 19:41:34 0° 233° (SW) 3,046 8.8 -5.5°
Reaches altitude 10° 19:44:06 10° 226° (SW) 2,127 7.9 -6.1°
Maximum altitude 19:48:48 41° 156° (SSE) 985 5.6 -7.1°
Drops below altitude 10° 19:53:31 10° 86° (E) 2,127 7.1 -8.1°
Enters shadow 19:54:43 - 82° (E) 2,560 7.5 -8.4°
